Time,TemperatureF,DewpointF,PressureIn,WindDirection,WindDirectionDegrees,WindSpeedMPH,WindSpeedGustMPH,Humidity,HourlyPrecipIn,Conditions,Clouds,dailyrainin,SoftwareType,DateUTC
2013-03-01 00:00:00,63.0,54.5,29.94,WSW,255,0.0,2.0,74,0.00,,,0.00,meteohub,2013-03-01 05:00:00,
2013-03-01 00:01:00,63.0,54.5,29.94,West,268,1.0,2.0,74,0.00,,,0.00,meteohub,2013-03-01 05:01:00,
2013-03-01 00:06:00,63.0,54.9,29.94,West,268,0.0,2.0,75,0.00,,,0.00,meteohub,2013-03-01 05:06:00,
2013-03-01 00:11:00,62.8,54.7,29.94,West,268,0.0,2.0,75,0.00,,,0.00,meteohub,2013-03-01 05:11:00,
2013-03-01 00:16:00,62.8,55.0,29.94,West,262,0.0,3.0,76,0.00,,,0.00,meteohub,2013-03-01 05:16:00,
2013-03-01 00:21:00,62.8,55.0,29.94,West,273,0.0,3.0,76,0.00,,,0.00,meteohub,2013-03-01 05:21:00,
2013-03-01 00:26:00,62.8,55.4,29.94,West,273,0.0,3.0,77,0.00,,,0.00,meteohub,2013-03-01 05:26:00,
2013-03-01 00:31:00,62.8,55.4,29.94,West,273,0.0,2.0,77,0.00,,,0.00,meteohub,2013-03-01 05:31:00,
2013-03-01 00:36:00,62.8,55.8,29.94,West,273,0.0,2.0,78,0.00,,,0.00,meteohub,2013-03-01 05:36:00,
2013-03-01 00:41:00,62.8,55.8,29.94,West,273,0.0,2.0,78,0.00,,,0.00,meteohub,2013-03-01 05:41:00,
2013-03-01 00:46:00,62.8,55.8,29.93,West,273,0.0,2.0,78,0.00,,,0.00,meteohub,2013-03-01 05:46:00,
2013-03-01 00:51:00,62.8,56.1,29.93,West,273,0.0,2.0,79,0.00,,,0.00,meteohub,2013-03-01 05:51:00,
2013-03-01 00:56:00,62.8,56.1,29.93,West,273,0.0,2.0,79,0.00,,,0.00,meteohub,2013-03-01 05:56:00,
2013-03-01 01:01:00,62.6,55.9,29.93,West,273,0.0,2.0,79,0.00,,,0.00,meteohub,2013-03-01 06:01:00,
2013-03-01 01:06:00,62.6,56.3,29.93,West,273,0.0,0.0,80,0.00,,,0.00,meteohub,2013-03-01 06:06:00,
2013-03-01 01:11:00,62.6,56.3,29.93,West,273,0.0,0.0,80,0.00,,,0.00,meteohub,2013-03-01 06:11:00,
2013-03-01 01:16:00,62.4,56.1,29.93,West,274,0.0,1.0,80,0.00,,,0.00,meteohub,2013-03-01 06:16:00,
2013-03-01 01:21:00,62.6,56.3,29.92,West,274,0.0,1.0,80,0.00,,,0.00,meteohub,2013-03-01 06:21:00,
2013-03-01 01:26:00,62.6,56.3,29.92,West,280,0.0,1.0,80,0.00,,,0.00,meteohub,2013-03-01 06:26:00,
2013-03-01 01:31:00,62.6,56.7,29.92,West,280,0.0,1.0,81,0.00,,,0.00,meteohub,2013-03-01 06:31:00,
2013-03-01 01:36:00,62.6,56.7,29.92,WNW,288,0.0,1.0,81,0.00,,,0.00,meteohub,2013-03-01 06:36:00,
2013-03-01 01:41:00,62.6,56.3,29.92,WNW,289,1.0,3.0,80,0.00,,,0.00,meteohub,2013-03-01 06:41:00,
2013-03-01 01:46:00,62.6,56.3,29.92,WNW,301,0.0,3.0,80,0.00,,,0.00,meteohub,2013-03-01 06:46:00,
2013-03-01 01:51:00,62.6,56.3,29.92,NW,317,0.0,3.0,80,0.00,,,0.00,meteohub,2013-03-01 06:51:00,
2013-03-01 01:56:00,62.6,56.3,29.92,NW,317,0.0,3.0,80,0.00,,,0.00,meteohub,2013-03-01 06:56:00,
2013-03-01 02:01:00,62.8,56.5,29.91,NW,317,0.0,3.0,80,0.00,,,0.00,meteohub,2013-03-01 07:01:00,
2013-03-01 02:06:00,62.8,56.5,29.92,NW,325,0.0,3.0,80,0.00,,,0.00,meteohub,2013-03-01 07:06:00,
2013-03-01 02:11:00,62.8,56.1,29.92,West,278,0.0,3.0,79,0.00,,,0.00,meteohub,2013-03-01 07:11:00,
2013-03-01 02:16:00,62.8,56.5,29.91,WNW,296,1.0,3.0,80,0.00,,,0.00,meteohub,2013-03-01 07:16:00,
2013-03-01 02:21:00,62.8,56.5,29.92,WNW,285,0.0,3.0,80,0.00,,,0.00,meteohub,2013-03-01 07:21:00,
2013-03-01 02:26:00,62.6,56.3,29.91,WNW,285,0.0,3.0,80,0.00,,,0.00,meteohub,2013-03-01 07:26:00,
2013-03-01 02:31:00,62.6,56.3,29.91,WNW,286,0.0,3.0,80,0.00,,,0.00,meteohub,2013-03-01 07:31:00,
2013-03-01 02:36:00,62.6,56.3,29.91,WNW,286,0.0,3.0,80,0.00,,,0.00,meteohub,2013-03-01 07:36:00,
2013-03-01 02:41:00,62.6,56.3,29.91,West,280,0.0,3.0,80,0.00,,,0.00,meteohub,2013-03-01 07:41:00,
2013-03-01 02:46:00,62.4,56.1,29.91,West,281,0.0,2.0,80,0.00,,,0.00,meteohub,2013-03-01 07:46:00,
2013-03-01 02:51:00,62.4,56.1,29.91,West,272,0.0,2.0,80,0.00,,,0.00,meteohub,2013-03-01 07:51:00,
2013-03-01 02:56:00,62.4,56.5,29.91,West,280,0.0,1.0,81,0.00,,,0.00,meteohub,2013-03-01 07:56:00,
2013-03-01 03:01:00,62.4,56.5,29.91,West,280,0.0,3.0,81,0.00,,,0.00,meteohub,2013-03-01 08:01:00,
2013-03-01 03:06:00,62.4,56.5,29.91,West,279,0.0,3.0,81,0.00,,,0.00,meteohub,2013-03-01 08:06:00,
2013-03-01 03:11:00,62.2,56.3,29.91,West,273,0.0,3.0,81,0.00,,,0.00,meteohub,2013-03-01 08:11:00,
2013-03-01 03:16:00,62.2,56.7,29.92,West,264,0.0,2.0,82,0.00,,,0.00,meteohub,2013-03-01 08:16:00,
2013-03-01 03:21:00,62.2,56.7,29.91,West,277,0.0,2.0,82,0.00,,,0.00,meteohub,2013-03-01 08:21:00,
2013-03-01 03:26:00,62.2,56.7,29.91,West,277,0.0,1.0,82,0.00,,,0.00,meteohub,2013-03-01 08:26:00,
2013-03-01 03:31:00,62.2,57.0,29.91,WNW,296,0.0,1.0,83,0.00,,,0.00,meteohub,2013-03-01 08:31:00,
2013-03-01 03:36:00,62.2,57.4,29.92,WNW,300,0.0,1.0,84,0.00,,,0.00,meteohub,2013-03-01 08:36:00,
2013-03-01 03:41:00,62.2,57.4,29.92,WNW,300,0.0,3.0,84,0.00,,,0.00,meteohub,2013-03-01 08:41:00,
2013-03-01 03:46:00,62.2,57.4,29.92,NNW,335,0.0,3.0,84,0.00,,,0.00,meteohub,2013-03-01 08:46:00,
2013-03-01 03:51:00,62.2,57.4,29.92,WNW,284,0.0,3.0,84,0.00,,,0.00,meteohub,2013-03-01 08:51:00,
2013-03-01 03:56:00,62.2,57.4,29.91,WNW,284,0.0,3.0,84,0.00,,,0.00,meteohub,2013-03-01 08:56:00,
2013-03-01 04:01:00,62.2,57.7,29.91,NW,321,0.0,3.0,85,0.00,,,0.00,meteohub,2013-03-01 09:01:00,
2013-03-01 04:06:00,62.2,57.7,29.91,NW,321,0.0,3.0,85,0.00,,,0.00,meteohub,2013-03-01 09:06:00,
2013-03-01 04:11:00,62.2,57.7,29.91,NW,310,0.0,2.0,85,0.00,,,0.00,meteohub,2013-03-01 09:11:00,
2013-03-01 04:16:00,62.2,57.7,29.91,NW,325,0.0,2.0,85,0.00,,,0.00,meteohub,2013-03-01 09:16:00,
2013-03-01 04:21:00,62.1,57.2,29.92,NW,321,0.0,2.0,84,0.00,,,0.00,meteohub,2013-03-01 09:21:00,
2013-03-01 04:26:00,62.1,57.2,29.92,NW,322,0.0,3.0,84,0.00,,,0.00,meteohub,2013-03-01 09:26:00,
2013-03-01 04:31:00,62.1,56.8,29.92,NW,308,0.0,3.0,83,0.00,,,0.00,meteohub,2013-03-01 09:31:00,
2013-03-01 04:37:00,62.1,56.8,29.93,West,279,0.0,3.0,83,0.00,,,0.00,meteohub,2013-03-01 09:37:00,
2013-03-01 04:42:00,62.1,56.5,29.93,NW,322,0.0,3.0,82,0.00,,,0.00,meteohub,2013-03-01 09:42:00,
2013-03-01 04:47:00,62.1,56.1,29.93,NW,312,0.0,3.0,81,0.00,,,0.00,meteohub,2013-03-01 09:47:00,
2013-03-01 04:52:00,62.1,55.8,29.92,NW,322,0.0,6.0,80,0.00,,,0.00,meteohub,2013-03-01 09:52:00,
2013-03-01 04:57:00,62.2,55.9,29.92,NNW,341,1.0,6.0,80,0.00,,,0.00,meteohub,2013-03-01 09:57:00,
2013-03-01 05:02:00,62.2,55.9,29.92,NNW,329,0.0,6.0,80,0.00,,,0.00,meteohub,2013-03-01 10:02:00,
2013-03-01 05:07:00,62.2,55.9,29.92,NW,321,0.0,3.0,80,0.00,,,0.00,meteohub,2013-03-01 10:07:00,
2013-03-01 05:12:00,62.2,55.6,29.92,West,279,0.0,5.0,79,0.00,,,0.00,meteohub,2013-03-01 10:12:00,
2013-03-01 05:17:00,62.2,55.9,29.92,NW,317,0.0,5.0,80,0.00,,,0.00,meteohub,2013-03-01 10:17:00,
2013-03-01 05:22:00,62.1,55.4,29.92,NW,314,0.0,5.0,79,0.00,,,0.00,meteohub,2013-03-01 10:22:00,
2013-03-01 05:27:00,62.1,55.4,29.92,NNW,338,0.0,4.0,79,0.00,,,0.00,meteohub,2013-03-01 10:27:00,
2013-03-01 05:32:00,62.1,55.0,29.92,WSW,239,0.0,5.0,78,0.00,,,0.00,meteohub,2013-03-01 10:32:00,
2013-03-01 05:37:00,62.1,55.4,29.93,NNW,332,0.0,5.0,79,0.00,,,0.00,meteohub,2013-03-01 10:37:00,
2013-03-01 05:42:00,62.1,55.4,29.93,NW,319,0.0,5.0,79,0.00,,,0.00,meteohub,2013-03-01 10:42:00,
2013-03-01 05:47:00,62.1,55.0,29.94,NW,313,0.0,4.0,78,0.00,,,0.00,meteohub,2013-03-01 10:47:00,
2013-03-01 05:52:00,61.9,54.9,29.94,NNW,342,0.0,4.0,78,0.00,,,0.00,meteohub,2013-03-01 10:52:00,
2013-03-01 05:57:00,61.9,54.7,29.94,NNW,332,1.0,4.0,77,0.00,,,0.00,meteohub,2013-03-01 10:57:00,
2013-03-01 06:02:00,61.9,54.7,29.94,West,271,1.0,4.0,77,0.00,,,0.00,meteohub,2013-03-01 11:02:00,
2013-03-01 06:07:00,61.7,54.1,29.94,North,351,0.0,4.0,76,0.00,,,0.00,meteohub,2013-03-01 11:07:00,
2013-03-01 06:12:00,61.5,53.6,29.93,NNW,347,0.0,4.0,75,0.00,,,0.00,meteohub,2013-03-01 11:12:00,
2013-03-01 06:17:00,61.5,53.6,29.93,NW,325,0.0,3.0,75,0.00,,,0.00,meteohub,2013-03-01 11:17:00,
2013-03-01 06:22:00,61.5,54.0,29.94,NNW,336,0.0,3.0,76,0.00,,,0.00,meteohub,2013-03-01 11:22:00,
2013-03-01 06:27:00,61.3,53.8,29.93,North,0,0.0,4.0,76,0.00,,,0.00,meteohub,2013-03-01 11:27:00,
2013-03-01 06:32:00,61.2,53.6,29.94,North,5,0.0,5.0,76,0.00,,,0.00,meteohub,2013-03-01 11:32:00,
2013-03-01 06:37:00,61.0,53.1,29.94,North,5,0.0,5.0,75,0.00,,,0.00,meteohub,2013-03-01 11:37:00,
2013-03-01 06:42:00,60.6,52.0,29.94,NW,311,0.0,5.0,73,0.00,,,0.00,meteohub,2013-03-01 11:42:00,
2013-03-01 06:47:00,60.6,52.0,29.94,NNW,348,0.0,5.0,73,0.00,,,0.00,meteohub,2013-03-01 11:47:00,
2013-03-01 06:52:00,60.4,51.8,29.94,ENE,60,3.0,5.0,73,0.00,,,0.00,meteohub,2013-03-01 11:52:00,
2013-03-01 06:57:00,60.4,51.8,29.94,North,5,1.0,3.0,73,0.00,,,0.00,meteohub,2013-03-01 11:57:00,
2013-03-01 07:02:00,60.3,51.6,29.95,North,11,1.0,5.0,73,0.00,,,0.00,meteohub,2013-03-01 12:02:00,
2013-03-01 07:07:00,60.1,51.4,29.95,NNE,20,1.0,5.0,73,0.00,,,0.00,meteohub,2013-03-01 12:07:00,
2013-03-01 07:12:00,60.1,51.1,29.95,North,0,0.0,5.0,72,0.00,,,0.00,meteohub,2013-03-01 12:12:00,
2013-03-01 07:17:00,59.9,50.9,29.95,NW,325,0.0,5.0,72,0.00,,,0.00,meteohub,2013-03-01 12:17:00,
2013-03-01 07:22:00,59.9,50.5,29.96,NNW,332,0.0,5.0,71,0.00,,,0.00,meteohub,2013-03-01 12:22:00,
2013-03-01 07:27:00,59.7,49.5,29.96,North,355,1.0,5.0,69,0.00,,,0.00,meteohub,2013-03-01 12:27:00,
2013-03-01 07:32:00,59.9,49.6,29.96,NE,45,0.0,3.0,69,0.00,,,0.00,meteohub,2013-03-01 12:32:00,
2013-03-01 07:37:00,59.9,50.2,29.96,WNW,290,0.0,3.0,70,0.00,,,0.00,meteohub,2013-03-01 12:37:00,
2013-03-01 07:42:00,60.1,49.8,29.97,North,355,0.0,3.0,69,0.00,,,0.00,meteohub,2013-03-01 12:42:00,
2013-03-01 07:47:00,60.1,49.5,29.97,NW,319,0.0,4.0,68,0.00,,,0.00,meteohub,2013-03-01 12:47:00,
2013-03-01 07:52:00,60.1,49.5,29.97,NE,46,0.0,4.0,68,0.00,,,0.00,meteohub,2013-03-01 12:52:00,
2013-03-01 07:57:00,60.1,49.5,29.97,North,9,0.0,4.0,68,0.00,,,0.00,meteohub,2013-03-01 12:57:00,
2013-03-01 08:02:00,60.1,49.5,29.97,NNE,18,0.0,3.0,68,0.00,,,0.00,meteohub,2013-03-01 13:02:00,
2013-03-01 08:07:00,60.1,49.5,29.97,NNE,15,0.0,3.0,68,0.00,,,0.00,meteohub,2013-03-01 13:07:00,
2013-03-01 08:12:00,60.3,50.0,29.96,North,0,0.0,3.0,69,0.00,,,0.00,meteohub,2013-03-01 13:12:00,
2013-03-01 08:17:00,60.3,49.3,29.97,North,350,0.0,3.0,67,0.00,,,0.00,meteohub,2013-03-01 13:17:00,
2013-03-01 08:22:00,60.4,49.5,29.96,North,9,0.0,4.0,67,0.00,,,0.00,meteohub,2013-03-01 13:22:00,
2013-03-01 08:27:00,60.4,50.2,29.97,North,9,0.0,4.0,69,0.00,,,0.00,meteohub,2013-03-01 13:27:00,
2013-03-01 08:32:00,60.6,50.0,29.97,NNE,33,0.0,4.0,68,0.00,,,0.00,meteohub,2013-03-01 13:32:00,
2013-03-01 08:37:00,60.6,49.6,29.96,NNE,21,3.0,3.0,67,0.00,,,0.00,meteohub,2013-03-01 13:37:00,
2013-03-01 08:42:00,60.6,49.6,29.96,NNW,348,1.0,4.0,67,0.00,,,0.00,meteohub,2013-03-01 13:42:00,
2013-03-01 08:47:00,60.6,49.6,29.96,NE,37,0.0,4.0,67,0.00,,,0.00,meteohub,2013-03-01 13:47:00,
2013-03-01 08:52:00,60.6,49.6,29.97,NNW,335,0.0,4.0,67,0.00,,,0.00,meteohub,2013-03-01 13:52:00,
2013-03-01 08:57:00,60.8,49.8,29.97,North,9,0.0,4.0,67,0.00,,,0.00,meteohub,2013-03-01 13:57:00,
2013-03-01 09:02:00,61.0,49.5,29.97,North,355,3.0,4.0,66,0.00,,,0.00,meteohub,2013-03-01 14:02:00,
2013-03-01 09:08:00,60.8,49.8,29.97,NNE,22,2.0,6.0,67,0.00,,,0.00,meteohub,2013-03-01 14:08:00,
2013-03-01 09:13:00,61.0,50.0,29.97,NNE,22,0.0,6.0,67,0.00,,,0.00,meteohub,2013-03-01 14:13:00,
2013-03-01 09:18:00,61.2,49.6,29.98,NNE,13,1.0,6.0,66,0.00,,,0.00,meteohub,2013-03-01 14:18:00,
2013-03-01 09:23:00,61.2,50.2,29.98,North,5,0.0,6.0,67,0.00,,,0.00,meteohub,2013-03-01 14:23:00,
2013-03-01 09:28:00,61.2,50.5,29.98,North,5,1.0,5.0,68,0.00,,,0.00,meteohub,2013-03-01 14:28:00,
2013-03-01 09:33:00,61.2,50.2,29.98,NNW,334,1.0,5.0,67,0.00,,,0.00,meteohub,2013-03-01 14:33:00,
2013-03-01 09:38:00,61.2,49.6,29.98,NNE,15,0.0,4.0,66,0.00,,,0.00,meteohub,2013-03-01 14:38:00,
2013-03-01 09:43:00,61.2,49.6,29.99,NW,319,3.0,4.0,66,0.00,,,0.00,meteohub,2013-03-01 14:43:00,
2013-03-01 09:48:00,61.0,49.5,29.98,NNW,329,0.0,4.0,66,0.00,,,0.00,meteohub,2013-03-01 14:48:00,
2013-03-01 09:53:00,61.2,50.2,29.98,WNW,302,0.0,5.0,67,0.00,,,0.00,meteohub,2013-03-01 14:53:00,
2013-03-01 09:58:00,61.3,49.8,29.99,North,355,0.0,5.0,66,0.00,,,0.00,meteohub,2013-03-01 14:58:00,
2013-03-01 10:03:00,61.3,49.8,29.99,NNW,344,1.0,6.0,66,0.00,,,0.00,meteohub,2013-03-01 15:03:00,
2013-03-01 10:08:00,61.2,49.3,29.99,WNW,282,2.0,6.0,65,0.00,,,0.00,meteohub,2013-03-01 15:08:00,
2013-03-01 10:13:00,61.2,49.6,29.99,North,5,0.0,6.0,66,0.00,,,0.00,meteohub,2013-03-01 15:13:00,
2013-03-01 10:18:00,61.3,49.5,29.99,NW,317,5.0,6.0,65,0.00,,,0.00,meteohub,2013-03-01 15:18:00,
2013-03-01 10:23:00,61.3,49.8,29.99,NNW,339,6.0,7.0,66,0.00,,,0.00,meteohub,2013-03-01 15:23:00,
2013-03-01 10:28:00,61.5,49.6,29.98,NE,44,4.0,7.0,65,0.00,,,0.00,meteohub,2013-03-01 15:28:00,
2013-03-01 10:33:00,61.7,49.8,29.99,NNE,26,0.0,7.0,65,0.00,,,0.00,meteohub,2013-03-01 15:33:00,
2013-03-01 10:38:00,62.2,50.4,29.99,North,5,0.0,6.0,65,0.00,,,0.00,meteohub,2013-03-01 15:38:00,
2013-03-01 10:43:00,62.6,49.5,29.98,NNW,343,6.0,7.0,62,0.00,,,0.00,meteohub,2013-03-01 15:43:00,
2013-03-01 10:48:00,62.6,49.8,29.98,NNE,18,0.0,7.0,63,0.00,,,0.00,meteohub,2013-03-01 15:48:00,
2013-03-01 10:53:00,62.8,49.6,29.98,North,351,2.0,7.0,62,0.00,,,0.00,meteohub,2013-03-01 15:53:00,
2013-03-01 10:58:00,62.8,49.6,29.98,NNE,19,4.0,7.0,62,0.00,,,0.00,meteohub,2013-03-01 15:58:00,
2013-03-01 11:03:00,62.8,49.6,29.99,NNW,346,0.0,6.0,62,0.00,,,0.00,meteohub,2013-03-01 16:03:00,
2013-03-01 11:08:00,62.8,49.6,29.98,North,0,0.0,6.0,62,0.00,,,0.00,meteohub,2013-03-01 16:08:00,
2013-03-01 11:13:00,63.0,49.8,29.98,WNW,294,3.0,5.0,62,0.00,,,0.00,meteohub,2013-03-01 16:13:00,
2013-03-01 11:18:00,63.0,48.4,29.98,NE,55,0.0,5.0,59,0.00,,,0.00,meteohub,2013-03-01 16:18:00,
2013-03-01 11:23:00,63.0,49.3,29.98,West,273,0.0,4.0,61,0.00,,,0.00,meteohub,2013-03-01 16:23:00,
2013-03-01 11:28:00,63.1,49.1,29.97,North,350,0.0,4.0,60,0.00,,,0.00,meteohub,2013-03-01 16:28:00,
2013-03-01 11:33:00,63.1,48.6,29.97,NW,321,0.0,4.0,59,0.00,,,0.00,meteohub,2013-03-01 16:33:00,
2013-03-01 11:38:00,63.1,49.1,29.98,NW,326,1.0,4.0,60,0.00,,,0.00,meteohub,2013-03-01 16:38:00,
2013-03-01 11:43:00,63.0,48.4,29.98,NW,319,3.0,5.0,59,0.00,,,0.00,meteohub,2013-03-01 16:43:00,
2013-03-01 11:48:00,63.0,48.9,29.98,NW,309,0.0,5.0,60,0.00,,,0.00,meteohub,2013-03-01 16:48:00,
2013-03-01 11:53:00,63.1,48.6,29.97,NW,319,0.0,5.0,59,0.00,,,0.00,meteohub,2013-03-01 16:53:00,
2013-03-01 11:58:00,63.0,48.0,29.97,WNW,296,1.0,4.0,58,0.00,,,0.00,meteohub,2013-03-01 16:58:00,
2013-03-01 12:03:00,62.8,48.7,29.97,WNW,302,0.0,3.0,60,0.00,,,0.00,meteohub,2013-03-01 17:03:00,
2013-03-01 12:08:00,62.8,49.1,29.96,NW,319,1.0,3.0,61,0.00,,,0.00,meteohub,2013-03-01 17:08:00,
2013-03-01 12:13:00,63.0,48.9,29.97,West,271,2.0,3.0,60,0.00,,,0.00,meteohub,2013-03-01 17:13:00,
2013-03-01 12:18:00,63.1,49.5,29.96,NW,306,2.0,4.0,61,0.00,,,0.00,meteohub,2013-03-01 17:18:00,
2013-03-01 12:23:00,63.3,49.6,29.96,NW,313,0.0,4.0,61,0.00,,,0.00,meteohub,2013-03-01 17:23:00,
2013-03-01 12:28:00,63.3,49.3,29.96,WNW,286,2.0,4.0,60,0.00,,,0.00,meteohub,2013-03-01 17:28:00,
2013-03-01 12:33:00,63.5,49.8,29.96,WNW,302,1.0,4.0,61,0.00,,,0.00,meteohub,2013-03-01 17:33:00,
2013-03-01 12:38:00,63.7,49.1,29.96,WNW,288,0.0,4.0,59,0.00,,,0.00,meteohub,2013-03-01 17:38:00,
2013-03-01 12:43:00,63.9,49.6,29.96,WNW,291,2.0,4.0,60,0.00,,,0.00,meteohub,2013-03-01 17:43:00,
2013-03-01 12:48:00,64.0,49.8,29.95,NNW,329,2.0,7.0,60,0.00,,,0.00,meteohub,2013-03-01 17:48:00,
2013-03-01 12:53:00,64.2,50.0,29.96,West,271,3.0,7.0,60,0.00,,,0.00,meteohub,2013-03-01 17:53:00,
2013-03-01 12:58:00,64.4,49.8,29.95,NNW,342,3.0,7.0,59,0.00,,,0.00,meteohub,2013-03-01 17:58:00,
2013-03-01 13:03:00,64.6,50.4,29.96,NW,313,0.0,7.0,60,0.00,,,0.00,meteohub,2013-03-01 18:03:00,
2013-03-01 13:08:00,64.8,50.5,29.95,NW,325,2.0,7.0,60,0.00,,,0.00,meteohub,2013-03-01 18:08:00,
2013-03-01 13:14:00,64.8,51.1,29.94,NNW,329,1.0,7.0,61,0.00,,,0.00,meteohub,2013-03-01 18:14:00,
2013-03-01 13:19:00,64.6,50.9,29.94,NW,307,0.0,5.0,61,0.00,,,0.00,meteohub,2013-03-01 18:19:00,
2013-03-01 13:23:00,64.9,51.6,29.94,NW,323,2.0,5.0,62,0.00,,,0.00,meteohub,2013-03-01 18:23:00,
2013-03-01 13:29:00,64.9,50.2,29.94,NW,322,0.0,7.0,59,0.00,,,0.00,meteohub,2013-03-01 18:29:00,
2013-03-01 13:34:00,64.9,51.1,29.94,WSW,257,3.0,7.0,61,0.00,,,0.00,meteohub,2013-03-01 18:34:00,
2013-03-01 13:39:00,65.1,50.4,29.94,WSW,245,1.0,7.0,59,0.00,,,0.00,meteohub,2013-03-01 18:39:00,
2013-03-01 13:44:00,65.3,51.1,29.94,West,273,2.0,7.0,60,0.00,,,0.00,meteohub,2013-03-01 18:44:00,
2013-03-01 13:49:00,65.3,50.5,29.93,West,277,3.0,7.0,59,0.00,,,0.00,meteohub,2013-03-01 18:49:00,
2013-03-01 13:54:00,65.1,50.0,29.93,WSW,250,2.0,7.0,58,0.00,,,0.00,meteohub,2013-03-01 18:54:00,
2013-03-01 13:59:00,64.6,50.4,29.93,West,263,5.0,7.0,60,0.00,,,0.00,meteohub,2013-03-01 18:59:00,
2013-03-01 14:04:00,64.2,50.0,29.92,WNW,287,3.0,8.0,60,0.00,,,0.00,meteohub,2013-03-01 19:04:00,
2013-03-01 14:09:00,64.0,50.4,29.92,West,270,1.0,8.0,61,0.00,,,0.00,meteohub,2013-03-01 19:09:00,
2013-03-01 14:14:00,64.0,50.4,29.92,WNW,294,0.0,8.0,61,0.00,,,0.00,meteohub,2013-03-01 19:14:00,
2013-03-01 14:19:00,64.2,50.0,29.92,NNW,348,2.0,7.0,60,0.00,,,0.00,meteohub,2013-03-01 19:19:00,
2013-03-01 14:24:00,64.4,50.7,29.92,WNW,283,4.0,7.0,61,0.00,,,0.00,meteohub,2013-03-01 19:24:00,
2013-03-01 14:29:00,64.2,51.4,29.92,WNW,297,0.0,7.0,63,0.00,,,0.00,meteohub,2013-03-01 19:29:00,
2013-03-01 14:34:00,64.0,50.7,29.92,West,270,1.0,5.0,62,0.00,,,0.00,meteohub,2013-03-01 19:34:00,
2013-03-01 14:39:00,64.0,50.7,29.92,West,274,5.0,5.0,62,0.00,,,0.00,meteohub,2013-03-01 19:39:00,
2013-03-01 14:44:00,63.9,49.3,29.92,WNW,294,1.0,7.0,59,0.00,,,0.00,meteohub,2013-03-01 19:44:00,
2013-03-01 14:49:00,63.9,50.2,29.91,WNW,300,0.0,7.0,61,0.00,,,0.00,meteohub,2013-03-01 19:49:00,
2013-03-01 14:54:00,63.9,49.6,29.91,NW,317,1.0,7.0,60,0.00,,,0.00,meteohub,2013-03-01 19:54:00,
2013-03-01 14:59:00,63.9,49.6,29.91,NW,306,1.0,6.0,60,0.00,,,0.00,meteohub,2013-03-01 19:59:00,
2013-03-01 15:04:00,63.9,50.5,29.91,WNW,283,6.0,6.0,62,0.00,,,0.00,meteohub,2013-03-01 20:04:00,
2013-03-01 15:09:00,63.7,50.9,29.91,West,279,0.0,6.0,63,0.00,,,0.00,meteohub,2013-03-01 20:09:00,
2013-03-01 15:14:00,63.7,50.4,29.91,NW,323,1.0,6.0,62,0.00,,,0.00,meteohub,2013-03-01 20:14:00,
2013-03-01 15:19:00,63.3,50.5,29.91,West,281,2.0,6.0,63,0.00,,,0.00,meteohub,2013-03-01 20:19:00,
2013-03-01 15:24:00,63.0,50.5,29.91,NW,323,4.0,9.0,64,0.00,,,0.00,meteohub,2013-03-01 20:24:00,
2013-03-01 15:29:00,63.0,50.5,29.91,WNW,302,0.0,9.0,64,0.00,,,0.00,meteohub,2013-03-01 20:29:00,
2013-03-01 15:34:00,63.0,49.8,29.91,WNW,297,2.0,9.0,62,0.00,,,0.00,meteohub,2013-03-01 20:34:00,
2013-03-01 15:39:00,63.0,49.8,29.91,WNW,302,5.0,5.0,62,0.00,,,0.00,meteohub,2013-03-01 20:39:00,
2013-03-01 15:44:00,63.0,50.2,29.91,NNW,336,0.0,6.0,63,0.00,,,0.00,meteohub,2013-03-01 20:44:00,
2013-03-01 15:50:00,63.0,49.3,29.91,NNW,345,1.0,6.0,61,0.00,,,0.00,meteohub,2013-03-01 20:50:00,
2013-03-01 15:55:00,62.8,49.1,29.91,NW,324,1.0,6.0,61,0.00,,,0.00,meteohub,2013-03-01 20:55:00,
2013-03-01 16:00:00,62.8,48.7,29.91,North,5,2.0,6.0,60,0.00,,,0.00,meteohub,2013-03-01 21:00:00,
2013-03-01 16:05:00,62.4,47.8,29.91,NW,324,3.0,7.0,59,0.00,,,0.00,meteohub,2013-03-01 21:05:00,
2013-03-01 16:10:00,62.4,48.4,29.91,NW,306,0.0,7.0,60,0.00,,,0.00,meteohub,2013-03-01 21:10:00,
2013-03-01 16:15:00,62.2,48.2,29.92,NW,309,2.0,7.0,60,0.00,,,0.00,meteohub,2013-03-01 21:15:00,
2013-03-01 16:20:00,62.1,47.5,29.91,NNW,333,3.0,7.0,59,0.00,,,0.00,meteohub,2013-03-01 21:20:00,
2013-03-01 16:25:00,62.1,48.0,29.92,NNW,346,1.0,8.0,60,0.00,,,0.00,meteohub,2013-03-01 21:25:00,
2013-03-01 16:30:00,61.9,47.8,29.92,NW,323,2.0,8.0,60,0.00,,,0.00,meteohub,2013-03-01 21:30:00,
2013-03-01 16:35:00,61.9,48.7,29.92,NW,322,2.0,8.0,62,0.00,,,0.00,meteohub,2013-03-01 21:35:00,
2013-03-01 16:40:00,61.9,48.2,29.92,NW,325,2.0,6.0,61,0.00,,,0.00,meteohub,2013-03-01 21:40:00,
2013-03-01 16:45:00,61.5,47.5,29.92,NNW,329,2.0,6.0,60,0.00,,,0.00,meteohub,2013-03-01 21:45:00,
2013-03-01 16:50:00,61.5,48.4,29.92,NNW,327,0.0,6.0,62,0.00,,,0.00,meteohub,2013-03-01 21:50:00,
2013-03-01 16:55:00,61.5,48.4,29.92,NW,317,5.0,6.0,62,0.00,,,0.00,meteohub,2013-03-01 21:55:00,
2013-03-01 17:00:00,61.3,48.2,29.92,North,350,5.0,6.0,62,0.00,,,0.00,meteohub,2013-03-01 22:00:00,
2013-03-01 17:05:00,61.3,49.1,29.92,NW,304,1.0,6.0,64,0.00,,,0.00,meteohub,2013-03-01 22:05:00,
2013-03-01 17:10:00,61.3,49.5,29.93,NW,326,0.0,6.0,65,0.00,,,0.00,meteohub,2013-03-01 22:10:00,
2013-03-01 17:15:00,61.3,49.1,29.93,North,355,0.0,6.0,64,0.00,,,0.00,meteohub,2013-03-01 22:15:00,
2013-03-01 17:20:00,61.2,48.9,29.93,NNW,342,1.0,6.0,64,0.00,,,0.00,meteohub,2013-03-01 22:20:00,
2013-03-01 17:25:00,61.2,48.9,29.93,NNW,343,1.0,6.0,64,0.00,,,0.00,meteohub,2013-03-01 22:25:00,
2013-03-01 17:30:00,61.2,48.9,29.94,NNW,331,0.0,6.0,64,0.00,,,0.00,meteohub,2013-03-01 22:30:00,
2013-03-01 17:35:00,61.2,48.9,29.94,NNW,329,1.0,6.0,64,0.00,,,0.00,meteohub,2013-03-01 22:35:00,
2013-03-01 17:40:00,61.3,49.1,29.94,NW,325,0.0,6.0,64,0.00,,,0.00,meteohub,2013-03-01 22:40:00,
2013-03-01 17:45:00,61.3,48.6,29.94,NW,307,1.0,6.0,63,0.00,,,0.00,meteohub,2013-03-01 22:45:00,
2013-03-01 17:50:00,61.3,49.5,29.94,NW,324,1.0,5.0,65,0.00,,,0.00,meteohub,2013-03-01 22:50:00,
2013-03-01 17:55:00,61.2,48.9,29.94,NNW,340,0.0,5.0,64,0.00,,,0.00,meteohub,2013-03-01 22:55:00,
2013-03-01 18:00:00,61.2,48.9,29.94,NW,320,0.0,4.0,64,0.00,,,0.00,meteohub,2013-03-01 23:00:00,
2013-03-01 18:05:00,61.2,49.3,29.95,NW,305,0.0,4.0,65,0.00,,,0.00,meteohub,2013-03-01 23:05:00,
2013-03-01 18:10:00,61.2,49.3,29.95,NNW,331,2.0,6.0,65,0.00,,,0.00,meteohub,2013-03-01 23:10:00,
2013-03-01 18:15:00,61.0,49.5,29.95,NW,321,0.0,6.0,66,0.00,,,0.00,meteohub,2013-03-01 23:15:00,
2013-03-01 18:20:00,61.0,49.1,29.95,NW,313,2.0,6.0,65,0.00,,,0.00,meteohub,2013-03-01 23:20:00,
2013-03-01 18:25:00,61.0,49.1,29.95,NW,321,2.0,5.0,65,0.00,,,0.00,meteohub,2013-03-01 23:25:00,
2013-03-01 18:30:00,61.0,49.5,29.95,NW,317,0.0,9.0,66,0.00,,,0.00,meteohub,2013-03-01 23:30:00,
2013-03-01 18:35:00,61.0,48.7,29.96,NNW,329,2.0,9.0,64,0.00,,,0.00,meteohub,2013-03-01 23:35:00,
2013-03-01 18:40:00,60.8,48.9,29.96,NW,311,0.0,9.0,65,0.00,,,0.00,meteohub,2013-03-01 23:40:00,
2013-03-01 18:45:00,60.6,49.3,29.96,NNW,344,3.0,8.0,66,0.00,,,0.00,meteohub,2013-03-01 23:45:00,
2013-03-01 18:50:00,60.6,49.6,29.96,NW,310,0.0,8.0,67,0.00,,,0.00,meteohub,2013-03-01 23:50:00,
2013-03-01 18:55:00,60.6,49.6,29.96,NW,321,0.0,6.0,67,0.00,,,0.00,meteohub,2013-03-01 23:55:00,
2013-03-01 19:00:00,60.4,49.8,29.96,NW,319,1.0,5.0,68,0.00,,,0.00,meteohub,2013-03-02 00:00:00,
2013-03-01 19:05:00,60.4,49.8,29.96,NW,309,0.0,6.0,68,0.00,,,0.00,meteohub,2013-03-02 00:05:00,
2013-03-01 19:10:00,60.3,49.6,29.96,NW,318,0.0,6.0,68,0.00,,,0.00,meteohub,2013-03-02 00:10:00,
2013-03-01 19:15:00,60.3,49.6,29.96,WNW,294,1.0,6.0,68,0.00,,,0.00,meteohub,2013-03-02 00:15:00,
2013-03-01 19:20:00,60.3,49.6,29.96,West,270,2.0,5.0,68,0.00,,,0.00,meteohub,2013-03-02 00:20:00,
2013-03-01 19:25:00,60.3,49.6,29.96,NW,322,0.0,5.0,68,0.00,,,0.00,meteohub,2013-03-02 00:25:00,
2013-03-01 19:31:00,60.3,49.6,29.96,NW,323,1.0,5.0,68,0.00,,,0.00,meteohub,2013-03-02 00:31:00,
2013-03-01 19:36:00,60.3,49.3,29.96,WNW,290,0.0,7.0,67,0.00,,,0.00,meteohub,2013-03-02 00:36:00,
2013-03-01 19:41:00,60.3,49.3,29.97,NW,309,2.0,7.0,67,0.00,,,0.00,meteohub,2013-03-02 00:41:00,
2013-03-01 19:46:00,60.3,49.6,29.96,NW,325,0.0,7.0,68,0.00,,,0.00,meteohub,2013-03-02 00:46:00,
2013-03-01 19:51:00,60.3,49.6,29.97,WNW,296,0.0,5.0,68,0.00,,,0.00,meteohub,2013-03-02 00:51:00,
2013-03-01 19:56:00,60.3,49.6,29.97,West,260,3.0,5.0,68,0.00,,,0.00,meteohub,2013-03-02 00:56:00,
2013-03-01 20:01:00,60.3,49.6,29.97,NW,306,0.0,6.0,68,0.00,,,0.00,meteohub,2013-03-02 01:01:00,
2013-03-01 20:06:00,60.3,49.6,29.97,NW,323,0.0,6.0,68,0.00,,,0.00,meteohub,2013-03-02 01:06:00,
2013-03-01 20:11:00,60.1,49.5,29.97,WNW,303,0.0,6.0,68,0.00,,,0.00,meteohub,2013-03-02 01:11:00,
2013-03-01 20:16:00,60.1,49.8,29.98,North,355,1.0,5.0,69,0.00,,,0.00,meteohub,2013-03-02 01:16:00,
2013-03-01 20:21:00,60.1,49.8,29.97,NW,325,2.0,8.0,69,0.00,,,0.00,meteohub,2013-03-02 01:21:00,
2013-03-01 20:26:00,59.7,50.0,29.97,WNW,296,0.0,8.0,70,0.00,,,0.00,meteohub,2013-03-02 01:26:00,
2013-03-01 20:31:00,59.7,50.0,29.97,NW,312,0.0,8.0,70,0.00,,,0.00,meteohub,2013-03-02 01:31:00,
2013-03-01 20:36:00,59.7,50.4,29.97,West,261,6.0,6.0,71,0.00,,,0.00,meteohub,2013-03-02 01:36:00,
2013-03-01 20:41:00,59.5,49.8,29.97,West,268,3.0,7.0,70,0.00,,,0.00,meteohub,2013-03-02 01:41:00,
2013-03-01 20:46:00,59.5,49.8,29.98,NW,320,2.0,7.0,70,0.00,,,0.00,meteohub,2013-03-02 01:46:00,
2013-03-01 20:51:00,59.5,49.3,29.98,NW,313,1.0,7.0,69,0.00,,,0.00,meteohub,2013-03-02 01:51:00,
2013-03-01 20:56:00,59.5,49.3,29.98,NW,323,1.0,5.0,69,0.00,,,0.00,meteohub,2013-03-02 01:56:00,
2013-03-01 21:01:00,59.4,49.1,29.98,NW,306,1.0,5.0,69,0.00,,,0.00,meteohub,2013-03-02 02:01:00,
2013-03-01 21:06:00,59.4,49.1,29.98,NNW,335,1.0,7.0,69,0.00,,,0.00,meteohub,2013-03-02 02:06:00,
2013-03-01 21:11:00,59.4,48.7,29.98,NW,314,3.0,7.0,68,0.00,,,0.00,meteohub,2013-03-02 02:11:00,
2013-03-01 21:16:00,59.2,48.6,29.99,NW,326,0.0,10.0,68,0.00,,,0.00,meteohub,2013-03-02 02:16:00,
2013-03-01 21:21:00,59.2,48.6,29.99,NNW,342,2.0,10.0,68,0.00,,,0.00,meteohub,2013-03-02 02:21:00,
2013-03-01 21:26:00,59.2,48.2,29.99,NW,313,3.0,10.0,67,0.00,,,0.00,meteohub,2013-03-02 02:26:00,
2013-03-01 21:31:00,59.0,48.0,29.98,NNW,340,3.0,7.0,67,0.00,,,0.00,meteohub,2013-03-02 02:31:00,
2013-03-01 21:36:00,59.0,48.4,29.99,NW,308,0.0,7.0,68,0.00,,,0.00,meteohub,2013-03-02 02:36:00,
2013-03-01 21:41:00,58.8,48.2,29.99,NW,325,0.0,7.0,68,0.00,,,0.00,meteohub,2013-03-02 02:41:00,
2013-03-01 21:46:00,58.8,48.2,29.99,NW,325,1.0,7.0,68,0.00,,,0.00,meteohub,2013-03-02 02:46:00,
2013-03-01 21:51:00,58.8,48.2,29.99,NNW,330,3.0,6.0,68,0.00,,,0.00,meteohub,2013-03-02 02:51:00,
2013-03-01 21:56:00,58.8,47.8,29.99,NNW,341,0.0,7.0,67,0.00,,,0.00,meteohub,2013-03-02 02:56:00,
2013-03-01 22:01:00,58.8,48.2,29.99,NW,316,2.0,7.0,68,0.00,,,0.00,meteohub,2013-03-02 03:01:00,
2013-03-01 22:06:00,58.8,48.2,29.99,NW,323,5.0,7.0,68,0.00,,,0.00,meteohub,2013-03-02 03:06:00,
2013-03-01 22:11:00,58.6,48.2,29.99,NW,317,2.0,7.0,68,0.00,,,0.00,meteohub,2013-03-02 03:11:00,
2013-03-01 22:16:00,58.6,48.6,29.99,NNW,334,0.0,7.0,69,0.00,,,0.00,meteohub,2013-03-02 03:16:00,
2013-03-01 22:21:00,58.6,48.6,29.99,NNW,341,0.0,7.0,69,0.00,,,0.00,meteohub,2013-03-02 03:21:00,
2013-03-01 22:27:00,58.6,48.6,29.99,NW,318,0.0,6.0,69,0.00,,,0.00,meteohub,2013-03-02 03:27:00,
2013-03-01 22:32:00,58.5,48.4,29.99,NW,312,0.0,5.0,69,0.00,,,0.00,meteohub,2013-03-02 03:32:00,
2013-03-01 22:37:00,58.5,48.4,29.99,WNW,286,1.0,5.0,69,0.00,,,0.00,meteohub,2013-03-02 03:37:00,
2013-03-01 22:42:00,58.5,48.4,29.99,NW,323,1.0,5.0,69,0.00,,,0.00,meteohub,2013-03-02 03:42:00,
2013-03-01 22:47:00,58.5,48.4,29.99,North,350,0.0,5.0,69,0.00,,,0.00,meteohub,2013-03-02 03:47:00,
2013-03-01 22:52:00,58.3,48.2,29.99,NW,325,0.0,5.0,69,0.00,,,0.00,meteohub,2013-03-02 03:52:00,
2013-03-01 22:57:00,58.3,48.9,29.99,NNW,332,2.0,6.0,71,0.00,,,0.00,meteohub,2013-03-02 03:57:00,
2013-03-01 23:02:00,58.3,48.6,29.98,NW,325,0.0,6.0,70,0.00,,,0.00,meteohub,2013-03-02 04:02:00,
2013-03-01 23:07:00,58.3,48.9,29.98,WNW,289,2.0,6.0,71,0.00,,,0.00,meteohub,2013-03-02 04:07:00,
2013-03-01 23:12:00,58.3,48.9,29.98,NW,304,0.0,4.0,71,0.00,,,0.00,meteohub,2013-03-02 04:12:00,
2013-03-01 23:17:00,58.3,49.3,29.98,NW,318,2.0,4.0,72,0.00,,,0.00,meteohub,2013-03-02 04:17:00,
2013-03-01 23:22:00,58.3,49.3,29.98,NW,321,2.0,4.0,72,0.00,,,0.00,meteohub,2013-03-02 04:22:00,
2013-03-01 23:27:00,58.1,49.5,29.98,NW,319,0.0,4.0,73,0.00,,,0.00,meteohub,2013-03-02 04:27:00,
2013-03-01 23:32:00,57.9,49.3,29.98,NNW,328,1.0,4.0,73,0.00,,,0.00,meteohub,2013-03-02 04:32:00,
2013-03-01 23:37:00,57.9,49.6,29.97,NW,325,4.0,5.0,74,0.00,,,0.00,meteohub,2013-03-02 04:37:00,
2013-03-01 23:42:00,57.9,49.6,29.98,NW,315,0.0,5.0,74,0.00,,,0.00,meteohub,2013-03-02 04:42:00,
2013-03-01 23:47:00,57.9,49.3,29.97,NW,323,0.0,6.0,73,0.00,,,0.00,meteohub,2013-03-02 04:47:00,
2013-03-01 23:52:00,57.9,49.6,29.97,NW,321,1.0,6.0,74,0.00,,,0.00,meteohub,2013-03-02 04:52:00,
2013-03-01 23:57:00,57.7,49.5,29.98,NNW,331,4.0,6.0,74,0.00,,,0.00,meteohub,2013-03-02 04:57:00,